Theta_e
296 296 297 297 297 296 297 297 297 297 298 296 298 297 297 298 297 297 297 295 295 295 296 294 294 294 294 295 296 290 292 291 293 294 294 293 293 292 292 292 291 291 293 295 293 293 292 292 292 292 293 294 293 291
294 295 296 296 297 297 297 297 297 297 296 295 296 296 297 296 297 297 296 295 295 295 297 295 294 294 294 294 295 290 295 292 293 294 294 294 294 293 292 292 291 291 292 292 293 292 292 291 292 292 293 294 293 292
294 294 294 295 295 296 296 297 297 297 297 297 297 297 297 297 297 297 296 296 293 293 294 294 294 293 293 293 293 294 293 293 292 293 295 293 293 292 293 292 292 292 292 292 292 291 292 292 292 292 292 292 292 291
294 294 294 294 294 294 295 295 296 297 297 297 297 297 297 297 297 297 297 295 295 295 296 297 293 294 294 293 292 293 294 291 292 292 292 293 293 292 293 292 293 293 291 291 291 291 291 291 291 291 291 291 291 291
293 293 293 293 293 293 293 294 294 295 296 297 297 296 297 297 297 297 296 296 295 295 297 297 290 292 293 293 293 293 293 293 292 293 293 293 293 292 292 291 293 292 292 291 292 291 291 291 291 291 290 290 290 289
293 293 292 292 292 292 293 293 294 294 294 295 296 296 296 297 297 297 295 296 295 294 294 296 294 292 292 293 293 293 293 293 293 293 293 293 292 292 293 293 292 292 292 292 291 291 291 291 291 290 290 288 285 282
292 292 291 292 292 292 292 293 293 293 294 294 295 295 296 296 296 295 295 294 294 294 294 296 295 289 289 292 293 293 293 293 293 293 294 293 292 292 292 293 292 292 291 291 291 290 290 290 290 287 283 281 277 276
290 290 290 291 291 292 292 292 293 293 293 293 294 294 295 295 295 296 294 294 293 294 293 295 294 290 288 290 292 291 292 292 293 293 293 293 293 293 293 291 291 291 291 291 291 290 289 285 282 279 278 276 275 276
288 288 288 289 290 291 291 292 292 292 292 293 293 293 294 294 293 294 294 294 293 293 295 295 294 293 287 291 291 289 291 292 291 292 292 292 292 293 292 291 291 290 290 290 289 279 278 279 281 278 275 274 274 274
288 287 288 288 289 290 290 290 291 291 291 292 292 292 294 293 293 294 295 294 293 293 293 295 295 293 289 290 290 290 290 292 292 291 290 292 292 292 291 290 290 288 283 280 280 280 275 275 276 276 273 272 271 270
287 287 287 288 288 288 289 289 289 290 290 291 292 294 292 293 293 293 295 295 295 294 293 293 293 290 287 290 290 290 290 290 290 291 291 291 291 290 290 289 285 278 276 273 273 272 271 271 274 272 270 268 267 266
287 287 287 287 287 287 288 288 288 289 290 290 292 290 291 292 293 294 294 294 294 295 292 291 292 292 287 288 290 289 290 289 290 287 290 290 290 289 285 278 273 272 271 268 268 268 267 268 267 266 265 265 264 263
286 286 287 287 287 287 287 287 287 288 288 290 290 292 292 293 293 292 292 292 293 288 287 289 289 290 288 289 290 289 290 289 283 288 288 289 287 278 273 269 266 264 265 264 264 263 263 263 262 261 262 261 261 260
286 286 286 287 287 287 287 287 287 288 289 290 291 292 292 292 292 292 292 294 291 290 288 290 289 289 289 289 290 290 288 284 287 287 288 289 286 273 268 267 264 263 263 263 262 261 261 261 261 260 259 259 258 258
284 285 285 286 286 287 287 287 287 288 289 291 291 291 291 288 282 279 276 283 283 287 287 287 287 288 289 289 289 287 284 287 287 288 289 287 271 266 264 263 262 261 260 260 260 259 259 259 258 258 258 258 257 257
284 285 286 286 287 287 287 287 287 288 289 289 288 285 279 286 283 278 278 282 277 285 286 288 288 288 288 289 289 288 286 286 288 286 276 268 264 264 262 261 260 259 259 258 258 257 258 257 257 257 257 258 258 258
283 284 284 285 286 286 286 287 287 284 283 284 281 275 276 284 289 284 281 281 279 286 288 288 288 288 287 287 287 287 287 288 281 272 268 266 264 262 259 259 257 257 257 256 256 256 256 256 256 255 256 260 259 259
282 281 283 284 285 285 281 278 280 280 278 274 280 273 272 270 273 274 273 277 281 285 285 287 285 286 287 287 286 286 277 265 265 265 264 262 260 259 259 259 256 256 256 255 255 255 255 255 257 260 259 260 260 261
280 282 281 283 284 280 279 275 275 278 270 269 269 268 268 268 267 267 269 273 273 274 281 284 285 285 286 284 282 272 268 267 265 263 261 258 258 256 256 255 255 255 256 256 256 259 258 257 258 258 259 260 261 262
279 280 279 280 281 277 275 272 271 274 274 269 268 268 267 267 265 267 269 271 275 279 281 283 284 277 275 266 262 264 265 263 263 263 261 259 258 256 257 257 259 257 257 256 257 257 259 259 259 259 259 260 260 261
277 277 276 278 272 270 271 270 268 268 268 268 266 267 267 266 266 268 270 267 275 278 279 267 264 259 255 255 255 259 260 263 264 265 265 262 259 259 257 256 256 257 259 259 259 259 258 259 258 258 259 259 259 259
274 274 274 273 272 269 268 267 268 266 267 265 267 266 267 269 267 265 263 270 273 263 260 260 259 258 258 258 255 254 254 256 257 258 258 258 258 258 258 258 258 259 259 259 259 259 259 258 258 258 258 258 258 258
272 272 270 269 271 270 266 266 268 265 269 267 266 269 266 265 263 262 269 265 261 254 252 253 252 250 254 251 252 252 253 256 258 257 258 258 258 258 259 258 258 259 259 259 258 258 258 258 258 258 258 258 258 258
269 263 264 265 267 266 266 267 266 266 266 267 269 269 265 263 260 267 271 265 257 254 254 253 254 256 255 255 257 256 253 254 255 255 256 258 259 258 258 258 258 258 258 258 258 258 258 258 257 258 258 258 258 258
269 258 261 262 262 266 267 268 267 268 267 262 266 265 262 256 268 269 268 265 260 257 255 251 253 255 258 257 255 254 254 255 257 258 256 257 258 258 258 258 258 258 258 257 258 258 258 257 257 257 257 257 257 257
260 254 258 257 261 263 262 268 265 264 265 266 261 257 256 263 268 267 263 260 259 256 255 255 256 257 257 256 258 257 256 256 256 259 259 258 258 259 260 260 260 260 259 258 258 258 258 258 257 257 257 257 257 256
260 257 254 252 254 256 260 259 258 262 264 263 260 261 263 267 265 262 259 257 257 255 253 254 256 257 259 257 257 258 258 258 259 259 260 260 259 259 259 259 260 260 259 259 259 259 258 258 258 257 257 257 257 257
252 251 254 254 254 252 258 259 261 260 260 255 256 262 263 262 262 259 257 255 254 254 254 255 256 257 258 258 259 259 259 259 259 259 259 260 259 259 259 259 259 258 258 258 259 259 258 258 258 257 257 257 258 258
255 251 251 257 254 255 253 255 256 252 249 252 259 261 259 257 254 254 255 253 254 254 255 255 256 257 258 259 259 260 260 259 260 260 261 262 261 260 259 259 259 259 259 259 259 258 259 259 259 259 259 258 258 258
253 247 256 259 260 259 253 248 250 245 244 245 245 250 254 255 254 253 253 253 255 256 255 256 257 257 259 260 260 259 260 260 260 260 259 259 259 260 260 260 260 260 259 259 259 259 259 259 259 259 258 258 257 257
246 248 253 254 256 252 247 242 242 243 244 246 242 249 254 251 252 255 254 254 254 254 256 257 257 258 258 259 259 260 261 259 260 259 259 259 260 260 260 260 260 260 259 259 259 259 258 258 257 257 257 256 257 256
251 250 253 257 255 246 243 245 246 248 247 250 251 247 251 254 260 259 257 256 256 257 256 256 257 258 257 258 258 258 258 259 259 259 259 260 260 260 260 260 260 260 260 260 259 259 258 257 256 256 255 256 256 256
253 252 253 254 257 257 252 251 254 255 253 254 251 246 247 251 259 257 258 257 255 254 255 256 256 257 258 258 258 259 260 260 260 259 259 259 259 259 259 259 260 260 259 259 259 258 258 257 256 256 256 255 256 256
Wind_Speed
18 19 19 20 23 24 22 21 20 22 22 23 23 22 24 27 25 25 18 21 16 3 5 11 8 6 6 8 5 4 4 2 5 6 5 5 5 6 5 10 8 8 7 6 5 7 11 5 5 6 3 5 4 9
20 19 17 21 21 21 22 24 24 26 27 28 25 24 23 26 26 28 10 27 27 5 3 9 22 22 21 13 6 6 1 4 6 5 5 4 4 3 7 7 7 7 10 7 6 6 2 8 10 10 11 10 14 17
23 22 22 20 16 16 19 22 24 26 26 24 25 29 25 26 31 28 21 16 15 2 3 5 10 21 23 23 18 6 4 7 5 4 4 4 8 5 7 9 13 14 17 11 13 15 22 18 18 17 16 16 16 15
21 22 20 19 19 21 20 18 20 22 24 25 25 26 28 28 28 29 27 24 21 2 4 6 11 22 22 22 25 27 15 6 7 5 6 6 6 8 9 11 10 12 4 12 13 19 19 19 20 19 17 17 16 12
24 24 22 21 21 21 21 22 22 21 22 23 24 27 27 27 27 27 29 26 30 10 3 5 4 13 17 20 26 28 22 13 6 5 5 7 8 6 7 8 11 16 21 12 15 19 16 18 16 14 13 16 11 7
21 22 21 22 23 25 25 24 24 23 22 21 23 23 23 23 23 22 4 26 35 29 3 4 3 5 18 21 21 20 19 11 6 5 5 6 15 7 5 9 21 22 18 18 18 20 19 21 18 15 14 10 4 3
19 19 19 21 21 23 26 25 24 24 23 22 21 22 23 23 26 8 3 2 27 33 3 3 3 3 7 9 7 7 16 5 5 5 6 10 8 9 5 15 18 19 16 17 18 17 20 21 14 6 1 5 5 4
15 16 17 17 18 18 18 19 20 20 21 22 22 22 23 24 25 24 30 21 14 10 4 4 3 3 12 6 6 5 5 4 5 5 4 8 5 6 7 14 20 21 22 19 18 15 14 8 0 4 4 5 5 5
16 18 19 20 19 18 16 16 17 16 16 17 17 19 19 16 6 7 18 26 27 11 3 5 6 6 6 5 4 4 5 5 5 6 9 6 6 9 14 20 19 20 18 17 7 3 1 4 5 6 5 5 5 5
18 18 20 21 22 20 18 16 15 13 12 12 12 6 4 9 16 11 16 6 9 6 5 5 7 7 8 7 7 6 4 4 5 7 4 6 12 18 21 17 10 5 2 5 2 5 3 4 6 6 6 2 2 2
19 21 21 19 18 18 18 19 19 17 14 5 4 4 3 11 12 5 6 7 5 6 6 5 10 7 4 6 5 6 4 4 4 5 7 5 8 16 15 16 6 6 6 4 3 4 3 2 2 4 3 2 2 3
17 18 18 19 20 20 19 19 18 19 12 8 3 2 7 5 4 6 6 6 5 6 6 7 7 6 5 3 4 6 5 6 6 4 4 4 8 10 4 5 6 6 6 6 4 5 4 3 2 2 1 3 4 4
13 14 16 17 19 21 21 20 24 21 17 11 5 6 5 5 7 6 9 5 6 6 6 5 5 6 4 5 3 5 9 7 4 5 4 5 5 3 5 5 5 5 6 5 5 4 3 2 1 2 3 4 5 7
4 6 9 13 16 20 21 24 21 21 12 5 8 9 7 5 7 5 6 6 3 5 9 9 6 5 4 7 4 5 3 4 7 6 8 7 6 6 6 5 6 5 4 5 4 3 2 2 2 3 5 6 7 8
8 11 14 16 17 19 21 19 19 22 6 5 5 8 7 2 2 2 2 1 1 3 8 4 3 4 4 5 5 4 6 5 6 7 8 1 3 6 7 5 5 5 4 4 3 2 2 2 3 6 7 8 9 12
12 12 3 6 12 18 20 19 19 11 4 4 1 1 1 3 3 3 3 2 1 5 3 2 4 4 5 4 7 6 6 7 5 3 2 4 5 5 6 6 5 5 4 3 2 2 2 3 4 6 11 12 10 10
11 3 10 11 11 4 7 7 8 2 2 4 3 1 1 3 3 3 2 4 5 5 3 3 6 6 4 4 5 5 5 6 2 2 2 3 6 6 5 5 5 6 5 3 2 1 3 4 6 6 5 7 10 11
3 10 15 13 8 6 4 5 2 2 2 2 2 2 2 2 2 2 2 2 2 4 5 3 3 5 4 5 3 3 2 3 3 3 4 4 5 5 6 5 4 4 4 4 2 2 3 4 5 4 6 7 10 8
11 4 12 7 6 5 2 3 4 3 2 1 2 2 2 2 1 4 3 1 1 1 2 4 4 3 3 2 2 2 2 2 3 3 4 4 7 6 6 5 4 3 3 3 3 1 1 3 4 5 6 7 7 8
7 6 9 5 2 3 3 3 5 2 2 2 0 2 2 2 1 2 3 3 2 1 2 3 3 1 2 2 3 2 2 5 6 5 3 4 6 6 6 5 3 4 4 3 2 1 1 0 1 4 5 6 7 7
3 3 6 2 5 9 4 2 3 2 2 2 1 2 2 1 2 2 1 3 2 1 1 3 2 2 2 2 2 2 4 3 2 2 3 5 7 6 6 4 4 3 2 2 2 2 1 2 3 4 5 5 5 6
3 3 3 6 4 3 4 5 3 2 2 1 2 2 2 2 2 2 3 1 0 2 2 2 2 1 2 3 3 5 3 6 7 8 11 14 4 4 3 6 6 3 3 2 1 0 1 2 3 3 4 5 5 5
2 4 5 6 4 5 2 1 2 3 2 2 1 2 2 1 1 3 1 2 1 1 2 2 2 3 3 2 3 4 5 4 4 6 7 7 8 6 7 6 5 4 2 3 2 2 2 2 2 3 4 4 5 5
5 6 6 4 5 3 1 3 2 2 1 1 2 3 1 2 4 1 1 1 1 1 1 1 1 1 2 1 1 1 2 4 7 6 5 6 3 4 4 4 5 5 4 3 3 3 3 2 2 2 3 4 5 6
4 8 5 5 4 2 3 2 2 2 2 2 1 1 2 3 0 1 2 3 2 1 1 1 1 2 1 1 1 1 2 5 4 3 6 6 3 4 3 4 5 7 7 5 5 4 3 2 3 3 4 5 6 8
7 5 5 4 3 3 3 1 2 2 1 1 2 1 1 1 1 2 2 4 3 2 1 2 2 0 0 0 2 1 4 8 5 1 5 10 9 4 2 2 2 4 10 11 7 6 5 4 5 6 7 8 8 10
5 5 3 1 2 2 1 1 0 1 2 2 1 1 1 2 2 2 2 2 2 4 5 3 4 1 1 3 3 3 7 11 4 0 0 4 8 9 9 5 5 4 4 7 10 9 7 7 7 9 11 12 13 12
2 5 3 5 2 1 1 2 3 3 2 2 2 3 2 2 1 3 2 4 8 9 4 4 7 1 2 4 4 5 4 6 7 6 8 9 10 11 11 12 12 10 9 7 8 10 11 11 12 14 15 17 20 18
3 4 2 3 1 3 3 3 2 2 2 2 2 2 2 2 2 2 3 9 9 4 1 2 3 3 1 3 5 5 2 6 3 1 1 1 1 2 3 2 4 6 7 9 10 12 13 14 15 17 18 20 22 24
4 4 3 3 2 3 2 2 1 1 1 2 2 2 2 1 2 6 9 7 4 4 3 2 1 3 2 2 2 3 5 6 6 4 1 2 2 5 9 9 9 9 9 11 13 15 15 16 19 20 21 23 23 23
3 2 2 2 2 1 2 2 1 1 1 1 0 1 1 3 5 3 9 9 5 3 2 0 2 4 3 3 2 2 1 2 3 3 6 10 12 13 13 13 12 12 13 14 16 18 19 20 21 22 23 24 25 24
3 3 3 3 2 1 0 2 1 1 1 1 1 1 2 1 2 2 11 15 7 3 2 2 2 2 2 3 5 5 7 10 10 10 10 11 12 12 12 13 13 14 15 16 18 19 20 22 24 24 24 26 27 28
1 1 1 2 1 1 3 3 0 1 1 1 2 1 1 2 3 2 12 17 10 7 5 4 3 4 5 5 5 6 9 14 16 17 17 16 17 18 20 21 22 21 21 22 23 23 24 23 24 25 26 26 27 27
Wind_Direction
247 249 246 240 240 238 237 238 234 229 229 236 231 227 226 224 215 203 210 201 189 213 235 203 197 178 176 190 177 133 137 187 182 207 209 216 235 213 245 254 268 255 254 229 232 263 272 74 123 221 331 138 217 285
248 254 256 248 247 245 239 240 243 238 239 243 239 232 227 228 224 212 212 205 203 206 294 219 229 228 214 202 193 184 129 152 180 197 202 220 207 219 225 246 221 243 242 261 243 260 223 191 256 262 274 270 289 296
240 244 247 248 250 253 255 250 247 242 241 240 244 235 235 235 228 221 217 200 198 220 251 214 222 231 231 224 208 185 215 192 206 226 184 223 237 220 227 227 254 257 252 250 259 252 259 269 267 270 276 274 284 285
243 243 241 245 248 251 253 255 254 251 247 244 241 237 237 235 230 225 218 196 192 175 240 241 222 231 226 223 223 225 236 182 243 181 224 229 225 212 236 242 245 245 233 241 252 258 269 264 263 265 269 275 281 285
245 241 241 243 248 251 251 251 251 255 252 246 244 243 243 236 230 225 227 214 203 197 258 227 153 213 204 210 220 224 228 224 211 200 208 223 235 242 230 249 246 241 242 246 251 260 262 271 278 281 288 283 287 283
246 240 242 247 251 253 251 251 250 249 251 254 247 240 237 237 229 230 224 218 217 210 214 214 221 169 193 204 208 209 216 220 208 204 217 234 236 207 219 234 239 251 251 244 256 260 264 268 278 281 287 291 194 199
242 242 248 252 255 256 250 248 249 247 247 246 243 239 237 233 225 219 187 108 200 189 220 219 208 116 175 191 209 220 215 210 216 217 223 234 224 219 231 243 244 250 253 252 249 259 263 264 273 317 200 137 124 126
239 245 248 250 253 254 252 246 245 245 244 244 244 242 241 238 239 231 225 223 183 208 177 218 168 178 174 169 183 189 180 187 207 227 232 234 235 224 242 239 245 252 257 263 260 254 263 296 74 146 151 159 185 207
246 253 256 256 255 253 253 247 243 243 244 244 244 246 246 231 219 221 213 209 203 203 215 190 181 207 163 173 153 170 195 198 191 221 229 209 220 223 231 241 241 246 253 261 265 102 101 237 233 192 193 196 229 222
248 257 259 256 250 250 246 248 246 242 243 247 242 197 225 192 209 197 185 196 199 198 212 204 185 193 181 169 178 160 187 217 211 220 207 222 237 239 245 251 260 247 161 125 150 248 199 236 218 208 206 201 235 242
259 259 256 250 245 243 242 241 243 244 242 213 209 218 201 160 161 184 215 203 177 194 189 174 198 163 216 170 170 206 181 192 224 215 200 222 241 241 245 248 221 133 132 116 81 89 74 51 153 184 196 207 236 264
254 251 247 244 245 244 239 238 234 229 218 211 247 204 181 185 197 220 194 181 213 201 158 177 172 171 156 170 167 172 198 192 233 136 219 242 247 245 178 139 124 118 122 121 117 136 132 139 124 160 232 256 264 274
256 256 255 252 246 243 238 241 234 229 233 219 197 210 213 174 201 200 190 172 195 156 167 153 145 152 141 195 177 175 203 207 114 193 219 233 232 167 141 132 120 120 122 127 133 124 115 128 137 201 255 268 285 282
279 286 279 268 263 252 244 239 233 220 214 225 204 208 209 200 208 185 231 241 158 171 160 171 141 161 166 175 176 210 142 138 200 209 234 247 215 140 136 140 137 159 133 141 148 163 182 222 260 272 269 276 277 268
310 294 284 273 263 250 240 233 227 215 232 231 209 208 208 152 65 101 90 162 145 167 136 122 110 155 155 193 188 131 174 211 216 233 236 222 108 137 144 150 141 142 153 163 168 201 226 277 292 297 295 288 279 279
326 307 280 313 283 259 234 229 219 210 213 236 313 19 44 198 146 164 157 151 186 154 104 116 142 184 196 192 188 194 187 210 221 207 93 125 141 135 138 146 141 131 145 143 168 234 274 274 274 285 296 298 292 284
323 238 327 309 320 157 195 174 187 178 323 169 145 46 50 314 251 125 157 138 165 167 162 170 193 191 124 197 202 191 217 236 86 122 102 105 151 140 122 131 137 146 150 143 146 240 269 285 294 294 284 307 301 295
284 322 324 296 230 167 84 55 82 35 99 47 232 84 64 28 348 12 31 103 195 189 159 179 114 198 205 192 208 218 109 93 62 101 111 112 104 107 128 133 146 155 143 142 176 229 244 266 273 292 305 312 312 308
309 329 7 80 155 106 72 51 358 123 75 43 103 85 59 96 54 338 323 3 349 299 136 158 189 193 202 218 6 71 118 164 153 137 113 94 112 127 126 117 134 161 154 154 176 194 293 280 285 309 316 320 318 325
315 7 8 336 185 88 92 46 348 107 127 101 84 76 73 61 28 355 354 358 324 220 178 204 211 78 30 58 35 12 93 126 133 132 131 143 138 137 143 153 160 148 149 149 157 153 289 62 5 342 334 326 325 330
299 343 5 81 55 56 70 60 63 40 102 91 62 39 70 33 44 29 39 350 273 268 279 23 21 75 66 58 4 4 108 139 100 45 117 148 152 150 133 140 151 164 168 152 140 121 52 18 344 340 336 333 332 327
22 11 74 44 80 69 77 22 73 64 56 64 77 16 52 57 47 31 317 242 79 55 31 3 24 7 107 90 44 31 79 92 82 94 87 114 133 139 151 163 170 175 173 166 159 97 332 328 327 326 330 334 338 335
71 47 52 24 83 45 40 330 76 15 98 125 174 106 63 55 347 320 237 46 56 41 31 23 23 348 45 64 87 63 58 66 85 84 94 94 106 114 135 163 180 174 180 187 202 226 248 281 304 321 326 338 340 339
48 48 32 40 24 71 358 50 61 73 85 58 101 118 110 355 324 236 179 60 40 10 53 87 245 115 115 94 78 84 83 87 89 91 109 124 128 158 175 185 203 213 211 201 210 226 237 254 302 313 323 327 332 334
74 6 4 25 20 27 50 45 31 54 66 26 78 83 50 328 238 63 9 14 20 76 112 149 223 16 42 83 75 76 122 128 136 144 179 177 152 143 187 223 236 236 225 215 223 220 226 242 265 287 304 311 318 321
68 358 30 355 13 23 3 65 40 47 29 101 47 17 294 268 124 60 9 341 345 333 217 197 178 109 35 282 113 147 194 180 165 176 190 202 201 206 213 211 222 253 232 224 215 212 226 246 269 292 304 312 312 314
59 2 4 59 320 298 95 91 183 344 56 48 32 25 342 82 65 11 0 33 334 1 322 267 195 263 348 147 188 168 169 178 156 185 266 221 231 237 237 236 250 262 249 229 223 229 244 265 282 295 303 309 311 312
83 20 21 337 15 355 39 24 27 40 32 20 277 42 63 42 63 353 345 354 333 328 303 215 191 179 56 169 147 149 156 198 224 273 288 280 268 258 255 253 254 256 259 255 247 249 259 272 284 294 297 299 305 311
41 353 297 348 36 56 46 27 43 42 357 317 343 53 53 15 326 315 322 328 332 346 64 159 196 206 346 155 170 182 189 180 192 264 319 346 359 32 6 292 262 257 255 258 262 265 273 280 288 294 297 295 298 301
16 354 328 4 22 40 35 353 4 17 312 341 308 279 240 251 317 347 349 346 355 3 344 259 251 194 292 264 224 227 232 232 236 247 241 258 283 303 305 304 299 293 285 280 279 281 279 276 278 278 282 286 290 295
315 307 323 11 60 45 20 345 276 256 269 310 48 299 338 325 308 337 10 2 336 325 334 228 172 208 252 278 286 305 329 16 21 332 308 301 301 301 303 302 298 292 286 283 281 282 283 284 283 285 287 287 290 292
335 29 347 358 7 98 340 24 15 34 350 22 25 293 271 252 62 41 7 7 7 8 359 338 326 36 338 302 294 296 304 315 326 331 326 325 322 322 318 312 306 299 293 289 288 288 287 284 285 283 283 287 291 294
284 261 264 292 284 62 28 325 202 118 96 59 38 1 355 348 76 332 2 8 10 3 353 349 347 343 346 351 4 33 26 359 345 336 326 315 309 308 303 301 301 298 292 288 289 292 291 288 284 284 286 286 288 290